Tracking 35051 objects as of 17-Aug-2026
HD Live streaming from Space Station
objects crossing your sky now

STARLINK-38225


10-day predictions
STARLINK-38225 is classified as:


NORAD ID: 100194
Int'l Code: 2026-175R
Launch date: August 1, 2026
Source: United States (US)
Launch site: AIR FORCE WESTERN TEST RANGE (AFWTR)
Your satellite tracking list
Your tracking list is empty




NASA's NSSDC Master Catalog

Two Line Element Set (TLE):
1 A0194U 26175R   26229.55726708 -.00778130  00000-0 -54047-2 0  9996
2 A0194  97.2843  70.3314 0000970  39.3310 320.8026 15.76440539  3831
Source of the keplerian elements: AFSPC